Вернуться в каталог

THORAD AGENA D DEB

АктивенSSO
NORAD 4766·DEBRIS·🇺🇸 United States

Запущен Apr 8, 1970 с Vandenberg Space Force Base

Loading…

Ближайшие Пролёты

TLE

Source: Space-Track
1 04766U 70025DL  26224.36043466  .00000006  00000-0  76204-4 0  9994
2 04766 100.1415  19.2462 0008914 208.6746 218.7539 13.55955409784242

Отслеживайте THORAD AGENA D DEB в реальном времени с AllMySat

Download on the App Store